Weather History for EGPK - November, 2012

Change the Weather History Date:

Thursday, November 29, 2012

  Actual Average Record
Temperature  
Mean Temperature 32 °F -  
Max Temperature 39 °F 44 °F 57 °F (2000)
Min Temperature 24 °F 34 °F 24 °F (2012)
Degree Days  
Heating Degree Days 34    
Moisture  
Dew Point 28 °F    
Average Humidity 89    
Maximum Humidity 93    
Minimum Humidity 75    
Precipitation  
Precipitation 0.00 in - - ()
Sea Level Pressure  
Sea Level Pressure 29.95 in    
Wind  
Wind Speed 1 mph ()    
Max Wind Speed 5 mph    
Max Gust Speed -    
Visibility 6.2 miles    
Events      
Averages and records for this station are not official NWS values.
T = Trace of Precipitation, MM = Missing Value Source: Averaged Metar Reports

Daily Weather History Graph

Daily Weather History Graph

Search for Another Location

Airport or City:

Trip Planner

Search our weather history database for the weather conditions in past years. The results will help you decide how hot, cold, wet, or windy it might be!

Date:

Astronomy

Nov. 29, 2012 Rise Set
Actual Time 8:19 AM GMT 3:53 PM GMT
Civil Twilight 7:35 AM GMT 4:37 PM GMT
Nautical Twilight 6:48 AM GMT 5:24 PM GMT
Astronomical Twilight 6:03 AM GMT 6:09 PM GMT
Moon 4:43 PM GMT (11/29) 8:56 AM GMT (11/29)
Length of Visible Light 9h 02m
Length of Day
7h 34m
Full, 99% of the Moon is Illuminated
Nov 29
Full
Dec 6
Last Quarter
Dec 13
New
Dec 20
First Quarter
Dec 28
Full

Hourly Weather History & Observations

Time (GMT) Temp. Windchill Dew Point Humidity Pressure Visibility Wind Dir Wind Speed Gust Speed Precip Events Conditions
12:50 AM 26.6 °F - 24.8 °F 93% 30.09 in 6.2 mi Calm Calm - N/A   Partly Cloudy
1:50 AM 26.6 °F - 24.8 °F 93% 30.09 in 6.2 mi Calm Calm - N/A   Partly Cloudy
2:50 AM 24.8 °F - 23.0 °F 93% 30.06 in 6.2 mi ENE 2.3 mph - N/A   Partly Cloudy
3:50 AM 24.8 °F 19.1 °F 23.0 °F 93% 30.06 in 6.2 mi East 4.6 mph - N/A   Partly Cloudy
4:50 AM 24.8 °F - 23.0 °F 93% 30.04 in 6.2 mi East 2.3 mph - N/A   Partly Cloudy
5:50 AM 26.6 °F - 23.0 °F 86% 30.04 in 6.2 mi Calm Calm - N/A   Partly Cloudy
6:20 AM 26.6 °F - 23.0 °F 86% 30.04 in 6.2 mi Calm Calm - N/A   Partly Cloudy
6:50 AM 26.6 °F - 24.8 °F 93% 30.04 in 6.2 mi East 2.3 mph - N/A   Partly Cloudy
7:20 AM 26.6 °F - 24.8 °F 93% 30.01 in 6.2 mi Calm Calm - N/A   Partly Cloudy
7:50 AM 26.6 °F - 23.0 °F 86% 30.01 in 6.2 mi Calm Calm - N/A   Partly Cloudy
8:20 AM 26.6 °F 22.6 °F 23.0 °F 86% 30.01 in 6.2 mi East 3.5 mph - N/A   Partly Cloudy
8:50 AM 26.6 °F 22.6 °F 23.0 °F 86% 30.01 in 6.2 mi East 3.5 mph - N/A   Partly Cloudy
9:20 AM 26.6 °F 21.2 °F 24.8 °F 93% 30.01 in 6.2 mi ESE 4.6 mph - N/A   Partly Cloudy
9:50 AM 28.4 °F 24.6 °F 26.6 °F 93% 29.98 in 6.2 mi East 3.5 mph - N/A   Partly Cloudy
10:20 AM 32.0 °F 27.5 °F 28.4 °F 87% 29.98 in 6.2 mi ESE 4.6 mph - N/A   Partly Cloudy
10:50 AM 32.0 °F 27.5 °F 28.4 °F 87% 29.98 in 6.2 mi East 4.6 mph - N/A   Partly Cloudy
11:20 AM 33.8 °F 29.6 °F 30.2 °F 87% 29.98 in 6.2 mi ESE 4.6 mph - N/A   Partly Cloudy
11:50 AM 35.6 °F - 30.2 °F 81% 29.98 in 6.2 mi Calm Calm - N/A   Partly Cloudy
12:20 PM 35.6 °F 31.7 °F 30.2 °F 81% 29.95 in 6.2 mi East 4.6 mph - N/A   Partly Cloudy
12:50 PM 37.4 °F - 32.0 °F 81% 29.95 in 6.2 mi Calm Calm - N/A   Partly Cloudy
1:20 PM 39.2 °F - 32.0 °F 75% 29.95 in 6.2 mi Calm Calm - N/A   Partly Cloudy
1:50 PM 39.2 °F - 32.0 °F 75% 29.92 in 6.2 mi Calm Calm - N/A   Partly Cloudy
2:20 PM 37.4 °F - 32.0 °F 81% 29.92 in 6.2 mi Calm Calm - N/A   Partly Cloudy
2:50 PM 35.6 °F - 30.2 °F 81% 29.92 in 6.2 mi Calm Calm - N/A   Partly Cloudy
3:20 PM 33.8 °F - 30.2 °F 87% 29.92 in 6.2 mi East 2.3 mph - N/A   Partly Cloudy
3:50 PM 33.8 °F - 30.2 °F 87% 29.89 in 6.2 mi Calm Calm - N/A   Partly Cloudy
4:20 PM 33.8 °F - 30.2 °F 87% 29.89 in 6.2 mi Calm Calm - N/A   Partly Cloudy
4:50 PM 32.0 °F - 30.2 °F 93% 29.89 in 6.2 mi Calm Calm - N/A   Partly Cloudy
5:20 PM 32.0 °F - 30.2 °F 93% 29.89 in 6.2 mi Calm Calm - N/A   Partly Cloudy
5:50 PM 33.8 °F - 30.2 °F 87% 29.89 in 6.2 mi Calm Calm - N/A   Partly Cloudy
6:20 PM 32.0 °F - 30.2 °F 93% 29.89 in 6.2 mi Calm Calm - N/A   Partly Cloudy
6:50 PM 32.0 °F - 30.2 °F 93% 29.89 in 6.2 mi Calm Calm - N/A   Partly Cloudy
7:20 PM 33.8 °F - 30.2 °F 87% 29.89 in 6.2 mi Calm Calm - N/A   Partly Cloudy
7:50 PM 32.0 °F - 30.2 °F 93% 29.89 in 6.2 mi East 2.3 mph - N/A   Partly Cloudy
8:20 PM 32.0 °F - 30.2 °F 93% 29.86 in 6.2 mi Calm Calm - N/A   Partly Cloudy
8:50 PM 32.0 °F - 30.2 °F 93% 29.86 in 6.2 mi Calm Calm - N/A   Partly Cloudy
9:20 PM 32.0 °F - 30.2 °F 93% 29.86 in 6.2 mi Calm Calm - N/A   Partly Cloudy
9:50 PM 32.0 °F - 30.2 °F 93% 29.86 in 6.2 mi Calm Calm - N/A   Partly Cloudy
10:20 PM 32.0 °F - 30.2 °F 93% 29.86 in 6.2 mi Calm Calm - N/A   Partly Cloudy
10:50 PM 32.0 °F - 28.4 °F 87% 29.86 in 6.2 mi Calm Calm - N/A   Partly Cloudy
11:20 PM 32.0 °F - 30.2 °F 93% 29.86 in 6.2 mi Calm Calm - N/A   Partly Cloudy
11:50 PM 32.0 °F - 30.2 °F 93% 29.86 in 6.2 mi Calm Calm - N/A   Partly Cloudy